TimePDT,TemperatureF,Dew PointF,Humidity,Sea Level PressureIn,VisibilityMPH,Wind Direction,Wind SpeedMPH,Gust SpeedMPH,PrecipitationIn,Events,Conditions,WindDirDegrees,DateUTC
12:56 AM,90.0,48.9,24,29.83,10.0,WNW,5.8,-,N/A,,Partly Cloudy,300,2013-07-25 07:56:00
1:56 AM,89.1,48.9,25,29.83,10.0,WNW,9.2,-,N/A,,Partly Cloudy,300,2013-07-25 08:56:00
2:56 AM,87.1,48.9,27,29.83,10.0,West,9.2,-,N/A,,Clear,280,2013-07-25 09:56:00
3:56 AM,86.0,48.0,27,29.83,10.0,West,9.2,-,N/A,,Clear,280,2013-07-25 10:56:00
4:56 AM,86.0,48.0,27,29.84,10.0,WNW,9.2,-,N/A,,Clear,290,2013-07-25 11:56:00
5:56 AM,84.9,48.0,28,29.86,10.0,West,10.4,-,N/A,,Clear,280,2013-07-25 12:56:00
6:56 AM,84.9,48.0,28,29.87,10.0,NW,4.6,-,N/A,,Clear,310,2013-07-25 13:56:00
7:56 AM,90.0,46.9,23,29.89,10.0,WNW,11.5,-,N/A,,Scattered Clouds,290,2013-07-25 14:56:00
8:56 AM,91.9,46.9,21,29.90,10.0,North,6.9,-,N/A,,Scattered Clouds,360,2013-07-25 15:56:00
9:56 AM,96.1,46.0,18,29.89,10.0,NE,4.6,-,N/A,,Scattered Clouds,50,2013-07-25 16:56:00
10:56 AM,99.0,45.0,16,29.90,10.0,North,3.5,-,N/A,,Scattered Clouds,360,2013-07-25 17:56:00
11:56 AM,100.9,43.0,14,29.89,10.0,Variable,6.9,-,N/A,,Mostly Cloudy,0,2013-07-25 18:56:00
12:56 PM,102.0,44.1,14,29.88,10.0,SSE,5.8,18.4,N/A,,Scattered Clouds,150,2013-07-25 19:56:00
1:56 PM,102.9,46.0,15,29.86,10.0,ESE,6.9,-,N/A,,Scattered Clouds,120,2013-07-25 20:56:00
2:38 PM,105.8,53.6,18,29.98,10.0,SW,18.4,25.3,N/A,,Clear,220,2013-07-25 21:38:00
2:56 PM,100.9,54.0,21,29.85,10.0,WSW,21.9,-,N/A,,Mostly Cloudy,240,2013-07-25 21:56:00
3:56 PM,104.0,51.1,17,29.83,10.0,SW,18.4,-,N/A,,Scattered Clouds,220,2013-07-25 22:56:00
4:56 PM,100.9,53.1,20,29.82,10.0,SW,17.3,-,N/A,,Mostly Cloudy,220,2013-07-25 23:56:00
5:56 PM,100.9,53.1,20,29.83,10.0,SSW,18.4,-,N/A,,Mostly Cloudy,210,2013-07-26 00:56:00
6:56 PM,98.1,54.0,23,29.85,10.0,SW,17.3,-,N/A,,Mostly Cloudy,220,2013-07-26 01:56:00
7:56 PM,95.0,54.0,25,29.86,10.0,SW,21.9,26.5,N/A,,Mostly Cloudy,230,2013-07-26 02:56:00
8:56 PM,91.9,55.0,29,29.88,10.0,SW,19.6,-,N/A,,Mostly Cloudy,220,2013-07-26 03:56:00
9:12 PM,91.4,55.4,29,30.02,10.0,SW,19.6,26.5,N/A,,Mostly Cloudy,230,2013-07-26 04:12:00
9:56 PM,91.9,52.0,26,29.91,10.0,SW,16.1,-,N/A,,Mostly Cloudy,220,2013-07-26 04:56:00
10:56 PM,91.0,51.1,25,29.94,7.0,WSW,20.7,25.3,0.00,,Mostly Cloudy,240,2013-07-26 05:56:00
11:56 PM,87.1,59.0,39,29.94,10.0,West,6.9,-,N/A,,Clear,270,2013-07-26 06:56:00